Location: Ferchesar
(52.6477°N, 12.4298°E)
Time: 14:21:55
(UTC+01:00)

Vanguard 3 - Pass Details

Date: 05 December 2021
Orbit: 508 x 3260 km, 33.3° (Epoch: 25 January)

Event Time Altitude Azimuth Distance (km) Brightness Sun altitude
Exits shadow 04:13:03 21° 212° (SSW) 5,321 10.9 -33.8°
Maximum altitude 04:24:19 36° 167° (SSE) 4,216 10.7 -32.1°
Drops below altitude 10° 04:38:05 10° 110° (ESE) 5,145 12.0 -30.1°
Sets 04:41:56 0° 102° (ESE) 5,813 12.6 -29.5°
